Location: Mahannah Oil Field
(37.4664°N, 96.6003°W)
Time: 00:28:10
(UTC+00:00)

Vanguard 3 - Pass Details

Date: 25 January 2021
Orbit: 508 x 3262 km, 33.4° (Epoch: 03 March)

Event Time Altitude Azimuth Distance (km) Brightness Sun altitude
Exits shadow 09:18:57 23° 99° (E) 2,535 9.9 -50.5°
Drops below altitude 10° 09:22:42 10° 88° (E) 3,802 11.0 -49.8°
Sets 09:27:05 0° 83° (E) 5,285 12.0 -48.9°
